Location: Clarks Summit,Pa.
(41.5000°N, 75.6000°W)
Time: 20:23:34
(UTC-05:00)

Envisat - Visible Passes

Search period start: 20 November 2018 00:00
Search period end: 30 November 2018 00:00
Orbit: 764 x 766 km, 98.2° (Epoch: 20 November)

Date Brightness Start Highest point End Pass type
(mag) Time Alt. Az. Time Alt. Az. Time Alt. Az.
20 Nov 4.5 17:29:33 10° E 17:32:20 15° ENE 17:35:08 10° NNE visible
20 Nov 3.1 19:09:20 47° S 19:10:44 72° WSW 19:15:50 10° NNW visible
21 Nov 3.0 18:32:18 35° SE 18:34:04 52° ENE 18:39:00 10° N visible
21 Nov 5.4 20:12:31 18° WSW 20:13:23 18° W 20:16:52 10° NW visible
22 Nov 3.9 17:55:15 18° ESE 17:57:35 25° ENE 18:01:39 10° NNE visible
22 Nov 4.2 19:35:28 37° WSW 19:36:22 40° W 19:41:09 10° NNW visible
23 Nov 4.7 17:19:28 10° E 17:21:18 12° ENE 17:23:09 10° NE visible
23 Nov 2.9 18:58:25 56° SSE 18:59:33 90° SW 19:04:40 10° NNW visible
24 Nov 3.3 18:21:20 32° ESE 18:22:55 41° ENE 18:27:41 10° N visible
24 Nov 5.1 20:01:32 23° WSW 20:02:05 23° W 20:06:06 10° NW visible
25 Nov 6.0 06:28:28 10° ENE 06:31:04 14° E 06:33:39 10° ESE visible
25 Nov 4.2 17:44:13 15° E 17:46:31 20° ENE 17:50:08 10° NNE visible
25 Nov 3.7 19:20:12 10° S 19:25:08 51° W 19:30:06 10° NNW visible
26 Nov 2.8 18:43:19 10° SSE 18:48:22 73° ENE 18:53:27 10° N visible
26 Nov 5.8 20:27:32 13° W 20:27:54 13° W 20:30:13 10° WNW visible
27 Nov 3.6 18:10:11 27° ESE 18:11:49 33° ENE 18:16:20 10° N visible
27 Nov 4.7 19:46:26 10° SSW 19:50:49 29° W 19:55:13 10° NW visible
28 Nov 6.4 06:18:39 10° ENE 06:19:45 11° E 06:20:49 10° E visible
28 Nov 4.4 17:33:02 12° E 17:35:27 16° ENE 17:38:31 10° NNE visible
28 Nov 3.3 19:08:53 10° S 19:13:55 65° WSW 19:18:59 10° NNW visible
29 Nov 2.9 18:32:15 10° SSE 18:37:13 57° ENE 18:42:12 10° N visible
29 Nov 5.5 20:16:14 17° W 20:16:35 17° W 20:19:48 10° NW visible
